Year,Month,Day,Hour,Minute,Value (Times are PST for temperature in C)
2010,09,15,00,00,13.70
2010,09,15,00,01,13.80
2010,09,15,00,02,13.80
2010,09,15,00,03,13.80
2010,09,15,00,04,13.90
2010,09,15,00,05,13.90
2010,09,15,00,06,13.90
2010,09,15,00,07,13.90
2010,09,15,00,08,14.00
2010,09,15,00,09,14.00
2010,09,15,00,10,14.00
2010,09,15,00,11,14.10
2010,09,15,00,12,14.10
2010,09,15,00,13,14.10
2010,09,15,00,14,14.10
2010,09,15,00,15,14.10
2010,09,15,00,16,14.10
2010,09,15,00,17,14.10
2010,09,15,00,18,14.10
2010,09,15,00,19,14.10
2010,09,15,00,20,14.10
2010,09,15,00,21,14.10
2010,09,15,00,22,14.10
2010,09,15,00,23,14.10
2010,09,15,00,24,14.10
2010,09,15,00,25,14.10
2010,09,15,00,26,14.10
2010,09,15,00,27,14.10
2010,09,15,00,28,14.10
2010,09,15,00,29,14.10
2010,09,15,00,30,14.10
2010,09,15,00,31,14.10
2010,09,15,00,32,14.10
2010,09,15,00,33,14.10
2010,09,15,00,34,14.20
2010,09,15,00,35,14.20
2010,09,15,00,36,14.20
2010,09,15,00,37,14.20
2010,09,15,00,38,14.20
2010,09,15,00,39,14.20
2010,09,15,00,40,14.20
2010,09,15,00,41,14.20
2010,09,15,00,42,14.20
2010,09,15,00,43,14.20
2010,09,15,00,44,14.20
2010,09,15,00,45,14.20
2010,09,15,00,46,14.20
2010,09,15,00,47,14.20
2010,09,15,00,48,14.20
2010,09,15,00,49,14.20
2010,09,15,00,50,14.20
2010,09,15,00,51,14.10
2010,09,15,00,52,14.10
2010,09,15,00,53,14.00
2010,09,15,00,54,13.90
2010,09,15,00,55,13.80
2010,09,15,00,56,13.70
2010,09,15,00,57,13.70
2010,09,15,00,58,13.60
2010,09,15,00,59,13.60
2010,09,15,01,00,13.50
2010,09,15,01,01,13.50
2010,09,15,01,02,13.50
2010,09,15,01,03,13.50
2010,09,15,01,04,13.50
2010,09,15,01,05,13.40
2010,09,15,01,06,13.40
2010,09,15,01,07,13.40
2010,09,15,01,08,13.40
2010,09,15,01,09,13.40
2010,09,15,01,10,13.30
2010,09,15,01,11,13.30
2010,09,15,01,12,13.30
2010,09,15,01,13,13.30
2010,09,15,01,14,13.30
2010,09,15,01,15,13.30
2010,09,15,01,16,13.30
2010,09,15,01,17,13.30
2010,09,15,01,18,13.30
2010,09,15,01,19,13.30
2010,09,15,01,20,13.30
2010,09,15,01,21,13.30
2010,09,15,01,22,13.30
2010,09,15,01,23,13.30
2010,09,15,01,24,13.20
2010,09,15,01,25,13.20
2010,09,15,01,26,13.10
2010,09,15,01,27,13.10
2010,09,15,01,28,13.00
2010,09,15,01,29,13.00
2010,09,15,01,30,12.90
2010,09,15,01,31,12.90
2010,09,15,01,32,12.80
2010,09,15,01,33,12.80
2010,09,15,01,34,12.80
2010,09,15,01,35,12.80
2010,09,15,01,36,12.80
2010,09,15,01,37,12.90
2010,09,15,01,38,13.00
2010,09,15,01,39,13.00
2010,09,15,01,40,13.00
2010,09,15,01,41,13.10
2010,09,15,01,42,13.10
2010,09,15,01,43,13.10
2010,09,15,01,44,13.00
2010,09,15,01,45,13.00
2010,09,15,01,46,12.80
2010,09,15,01,47,12.70
2010,09,15,01,48,12.50
2010,09,15,01,49,12.30
2010,09,15,01,50,12.20
2010,09,15,01,51,12.10
2010,09,15,01,52,12.00
2010,09,15,01,53,11.90
2010,09,15,01,54,11.80
2010,09,15,01,55,11.80
2010,09,15,01,56,11.80
2010,09,15,01,57,11.70
2010,09,15,01,58,11.70
2010,09,15,01,59,11.60
2010,09,15,02,00,11.60
2010,09,15,02,01,11.60
2010,09,15,02,02,11.60
2010,09,15,02,03,11.50
2010,09,15,02,04,11.40
2010,09,15,02,05,11.40
2010,09,15,02,06,11.40
2010,09,15,02,07,11.40
2010,09,15,02,08,11.40
2010,09,15,02,09,11.40
2010,09,15,02,10,11.40
2010,09,15,02,11,11.40
2010,09,15,02,12,11.40
2010,09,15,02,13,11.30
2010,09,15,02,14,11.30
2010,09,15,02,15,11.30
2010,09,15,02,16,11.30
2010,09,15,02,17,11.20
2010,09,15,02,18,11.20
2010,09,15,02,19,11.20
2010,09,15,02,20,11.20
2010,09,15,02,21,11.20
2010,09,15,02,22,11.20
2010,09,15,02,23,11.20
2010,09,15,02,24,11.30
2010,09,15,02,25,11.30
2010,09,15,02,26,11.30
2010,09,15,02,27,11.40
2010,09,15,02,28,11.40
2010,09,15,02,29,11.40
2010,09,15,02,30,11.50
2010,09,15,02,31,11.60
2010,09,15,02,32,11.60
2010,09,15,02,33,11.60
2010,09,15,02,34,11.70
2010,09,15,02,35,11.80
2010,09,15,02,36,11.80
2010,09,15,02,37,11.80
2010,09,15,02,38,11.80
2010,09,15,02,39,11.90
2010,09,15,02,40,11.90
2010,09,15,02,41,11.90
2010,09,15,02,42,12.00
2010,09,15,02,43,12.00
2010,09,15,02,44,12.00
2010,09,15,02,45,12.00
2010,09,15,02,46,12.00
2010,09,15,02,47,12.00
2010,09,15,02,48,12.00
2010,09,15,02,49,12.00
2010,09,15,02,50,12.10
2010,09,15,02,51,12.10
2010,09,15,02,52,12.10
2010,09,15,02,53,12.10
2010,09,15,02,54,12.10
2010,09,15,02,55,12.10
2010,09,15,02,56,12.10
2010,09,15,02,57,12.10
2010,09,15,02,58,12.10
2010,09,15,02,59,12.10
2010,09,15,03,00,12.10
2010,09,15,03,01,12.10
2010,09,15,03,02,12.10
2010,09,15,03,03,12.00
2010,09,15,03,04,12.00
2010,09,15,03,05,12.00
2010,09,15,03,06,12.00
2010,09,15,03,07,12.00
2010,09,15,03,08,12.00
2010,09,15,03,09,12.00
2010,09,15,03,10,12.10
2010,09,15,03,11,12.10
2010,09,15,03,12,12.10
2010,09,15,03,13,12.10
2010,09,15,03,14,12.10
2010,09,15,03,15,12.10
2010,09,15,03,16,12.10
2010,09,15,03,17,12.10
2010,09,15,03,18,12.10
2010,09,15,03,19,12.10
2010,09,15,03,20,12.00
2010,09,15,03,21,12.00
2010,09,15,03,22,12.00
2010,09,15,03,23,12.00
2010,09,15,03,24,12.10
2010,09,15,03,25,12.10
2010,09,15,03,26,12.10
2010,09,15,03,27,12.10
2010,09,15,03,28,12.10
2010,09,15,03,29,12.10
2010,09,15,03,30,12.10
2010,09,15,03,31,12.10
2010,09,15,03,32,12.10
2010,09,15,03,33,12.10
2010,09,15,03,34,12.10
2010,09,15,03,35,12.10
2010,09,15,03,36,12.20
2010,09,15,03,37,12.20
2010,09,15,03,38,12.20
2010,09,15,03,39,12.20
2010,09,15,03,40,12.20
2010,09,15,03,41,12.20
2010,09,15,03,42,12.20
2010,09,15,03,43,12.20
2010,09,15,03,44,12.20
2010,09,15,03,45,12.20
2010,09,15,03,46,12.20
2010,09,15,03,47,12.20
2010,09,15,03,48,12.20
2010,09,15,03,49,12.20
2010,09,15,03,50,12.20
2010,09,15,03,51,12.20
2010,09,15,03,52,12.20
2010,09,15,03,53,12.20
2010,09,15,03,54,12.20
2010,09,15,03,55,12.20
2010,09,15,03,56,12.20
2010,09,15,03,57,12.20
2010,09,15,03,58,12.20
2010,09,15,03,59,12.30
2010,09,15,04,00,12.30
2010,09,15,04,01,12.30
2010,09,15,04,02,12.30
2010,09,15,04,03,12.30
2010,09,15,04,04,12.30
2010,09,15,04,05,12.30
2010,09,15,04,06,12.30
2010,09,15,04,07,12.30
2010,09,15,04,08,12.30
2010,09,15,04,09,12.30
2010,09,15,04,10,12.30
2010,09,15,04,11,12.20
2010,09,15,04,12,12.20
2010,09,15,04,13,12.20
2010,09,15,04,14,12.20
2010,09,15,04,15,12.20
2010,09,15,04,16,12.20
2010,09,15,04,17,12.20
2010,09,15,04,18,12.30
2010,09,15,04,19,12.30
2010,09,15,04,20,12.30
2010,09,15,04,21,12.30
2010,09,15,04,22,12.30
2010,09,15,04,23,12.30
2010,09,15,04,24,12.30
2010,09,15,04,25,12.30
2010,09,15,04,26,12.30
2010,09,15,04,27,12.30
2010,09,15,04,28,12.30
2010,09,15,04,29,12.30
2010,09,15,04,30,12.40
2010,09,15,04,31,12.40
2010,09,15,04,32,12.40
2010,09,15,04,33,12.40
2010,09,15,04,34,12.40
2010,09,15,04,35,12.50
2010,09,15,04,36,12.50
2010,09,15,04,37,12.50
2010,09,15,04,38,12.50
2010,09,15,04,39,12.50
2010,09,15,04,40,12.50
2010,09,15,04,41,12.50
2010,09,15,04,42,12.50
2010,09,15,04,43,12.50
2010,09,15,04,44,12.50
2010,09,15,04,45,12.50
2010,09,15,04,46,12.50
2010,09,15,04,47,12.50
2010,09,15,04,48,12.50
2010,09,15,04,49,12.50
2010,09,15,04,50,12.50
2010,09,15,04,51,12.40
2010,09,15,04,52,12.40
2010,09,15,04,53,12.40
2010,09,15,04,54,12.40
2010,09,15,04,55,12.40
2010,09,15,04,56,12.40
2010,09,15,04,57,12.40
2010,09,15,04,58,12.40
2010,09,15,04,59,12.40
2010,09,15,05,00,12.40
2010,09,15,05,01,12.50
2010,09,15,05,02,12.50
2010,09,15,05,03,12.50
2010,09,15,05,04,12.50
2010,09,15,05,05,12.50
2010,09,15,05,06,12.50
2010,09,15,05,07,12.50
2010,09,15,05,08,12.50
2010,09,15,05,09,12.50
2010,09,15,05,10,12.50
2010,09,15,05,11,12.50
2010,09,15,05,12,12.60
2010,09,15,05,13,12.60
2010,09,15,05,14,12.60
2010,09,15,05,15,12.60
2010,09,15,05,16,12.70
2010,09,15,05,17,12.70
2010,09,15,05,18,12.70
2010,09,15,05,19,12.80
2010,09,15,05,20,12.80
2010,09,15,05,21,12.80
2010,09,15,05,22,12.80
2010,09,15,05,23,12.80
2010,09,15,05,24,12.80
2010,09,15,05,25,12.80
2010,09,15,05,26,12.80
2010,09,15,05,27,12.80
2010,09,15,05,28,12.80
2010,09,15,05,29,12.80
2010,09,15,05,30,12.80
2010,09,15,05,31,12.80
2010,09,15,05,32,12.80
2010,09,15,05,33,12.80
2010,09,15,05,34,12.80
2010,09,15,05,35,12.80
2010,09,15,05,36,12.80
2010,09,15,05,37,12.90
2010,09,15,05,38,12.90
2010,09,15,05,39,13.00
2010,09,15,05,40,13.00
2010,09,15,05,41,13.00
2010,09,15,05,42,13.00
2010,09,15,05,43,13.10
2010,09,15,05,44,13.10
2010,09,15,05,45,13.20
2010,09,15,05,46,13.20
2010,09,15,05,47,13.30
2010,09,15,05,48,13.30
2010,09,15,05,49,13.30
2010,09,15,05,50,13.40
2010,09,15,05,51,13.40
2010,09,15,05,52,13.40
2010,09,15,05,53,13.40
2010,09,15,05,54,13.40
2010,09,15,05,55,13.40
2010,09,15,05,56,13.40
2010,09,15,05,57,13.40
2010,09,15,05,58,13.40
2010,09,15,05,59,13.30
2010,09,15,06,00,13.30
2010,09,15,06,01,13.30
2010,09,15,06,02,13.20
2010,09,15,06,03,13.20
2010,09,15,06,04,13.20
2010,09,15,06,05,13.20
2010,09,15,06,06,13.10
2010,09,15,06,07,13.10
2010,09,15,06,08,13.00
2010,09,15,06,09,13.00
2010,09,15,06,10,12.90
2010,09,15,06,11,12.90
2010,09,15,06,12,12.80
2010,09,15,06,13,12.80
2010,09,15,06,14,12.80
2010,09,15,06,15,12.80
2010,09,15,06,16,12.80
2010,09,15,06,17,12.80
2010,09,15,06,18,12.80
2010,09,15,06,19,12.70
2010,09,15,06,20,12.70
2010,09,15,06,21,12.60
2010,09,15,06,22,12.60
2010,09,15,06,23,12.60
2010,09,15,06,24,12.60
2010,09,15,06,25,12.60
2010,09,15,06,26,12.50
2010,09,15,06,27,12.50
2010,09,15,06,28,12.50
2010,09,15,06,29,12.50
2010,09,15,06,30,12.50
2010,09,15,06,31,12.50
2010,09,15,06,32,12.50
2010,09,15,06,33,12.50
2010,09,15,06,34,12.50
2010,09,15,06,35,12.50
2010,09,15,06,36,12.50
2010,09,15,06,37,12.50
2010,09,15,06,38,12.40
2010,09,15,06,39,12.30
2010,09,15,06,40,12.30
2010,09,15,06,41,12.30
2010,09,15,06,42,12.30
2010,09,15,06,43,12.20
2010,09,15,06,44,12.20
2010,09,15,06,45,12.10
2010,09,15,06,46,12.00
2010,09,15,06,47,12.00
2010,09,15,06,48,11.90
2010,09,15,06,49,11.80
2010,09,15,06,50,11.80
2010,09,15,06,51,11.80
2010,09,15,06,52,11.80
2010,09,15,06,53,11.80
2010,09,15,06,54,11.80
2010,09,15,06,55,11.80
2010,09,15,06,56,11.80
2010,09,15,06,57,11.80
2010,09,15,06,58,11.80
2010,09,15,06,59,11.80
2010,09,15,07,00,11.80
2010,09,15,07,01,11.80
2010,09,15,07,02,11.80
2010,09,15,07,03,11.80
2010,09,15,07,04,11.80
2010,09,15,07,05,11.80
2010,09,15,07,06,11.80
2010,09,15,07,07,11.80
2010,09,15,07,08,11.80
2010,09,15,07,09,11.80
2010,09,15,07,10,11.80
2010,09,15,07,11,11.80
2010,09,15,07,12,11.80
2010,09,15,07,13,11.80
2010,09,15,07,14,11.90
2010,09,15,07,15,11.90
2010,09,15,07,16,12.00
2010,09,15,07,17,12.00
2010,09,15,07,18,12.10
2010,09,15,07,19,12.20
2010,09,15,07,20,12.20
2010,09,15,07,21,12.20
2010,09,15,07,22,12.30
2010,09,15,07,23,12.30
2010,09,15,07,24,12.30
2010,09,15,07,25,12.30
2010,09,15,07,26,12.30
2010,09,15,07,27,12.30
2010,09,15,07,28,12.30
2010,09,15,07,29,12.30
2010,09,15,07,30,12.40
2010,09,15,07,31,12.40
2010,09,15,07,32,12.40
2010,09,15,07,33,12.50
2010,09,15,07,34,12.50
2010,09,15,07,35,12.60
2010,09,15,07,36,12.60
2010,09,15,07,37,12.70
2010,09,15,07,38,12.70
2010,09,15,07,39,12.80
2010,09,15,07,40,12.80
2010,09,15,07,41,12.80
2010,09,15,07,42,12.80
2010,09,15,07,43,12.80
2010,09,15,07,44,12.90
2010,09,15,07,45,12.90
2010,09,15,07,46,12.90
2010,09,15,07,47,12.90
2010,09,15,07,48,13.00
2010,09,15,07,49,13.00
2010,09,15,07,50,13.10
2010,09,15,07,51,13.10
2010,09,15,07,52,13.20
2010,09,15,07,53,13.20
2010,09,15,07,54,13.20
2010,09,15,07,55,13.20
2010,09,15,07,56,13.30
2010,09,15,07,57,13.30
2010,09,15,07,58,13.30
2010,09,15,07,59,13.30
2010,09,15,08,00,13.30
2010,09,15,08,01,13.30
2010,09,15,08,02,13.30
2010,09,15,08,03,13.30
2010,09,15,08,04,13.30
2010,09,15,08,05,13.30
2010,09,15,08,06,13.30
2010,09,15,08,07,13.30
2010,09,15,08,08,13.30
2010,09,15,08,09,13.30
2010,09,15,08,10,13.30
2010,09,15,08,11,13.30
2010,09,15,08,12,13.40
2010,09,15,08,13,13.40
2010,09,15,08,14,13.40
2010,09,15,08,15,13.40
2010,09,15,08,16,13.50
2010,09,15,08,17,13.50
2010,09,15,08,18,13.50
2010,09,15,08,19,13.50
2010,09,15,08,20,13.60
2010,09,15,08,21,13.60
2010,09,15,08,22,13.60
2010,09,15,08,23,13.50
2010,09,15,08,24,13.50
2010,09,15,08,25,13.40
2010,09,15,08,26,13.30
2010,09,15,08,27,13.20
2010,09,15,08,28,13.20
2010,09,15,08,29,13.10
2010,09,15,08,30,13.10
2010,09,15,08,31,13.10
2010,09,15,08,32,13.10
2010,09,15,08,33,13.10
2010,09,15,08,34,13.10
2010,09,15,08,35,13.10
2010,09,15,08,36,13.10
2010,09,15,08,37,13.10
2010,09,15,08,38,13.00
2010,09,15,08,39,13.00
2010,09,15,08,40,13.00
2010,09,15,08,41,13.00
2010,09,15,08,42,13.10
2010,09,15,08,43,13.10
2010,09,15,08,44,13.10
2010,09,15,08,45,13.10
2010,09,15,08,46,13.10
2010,09,15,08,47,13.10
2010,09,15,08,48,13.10
2010,09,15,08,49,13.10
2010,09,15,08,50,13.10
2010,09,15,08,51,13.10
2010,09,15,08,52,13.10
2010,09,15,08,53,13.10
2010,09,15,08,54,13.10
2010,09,15,08,55,13.10
2010,09,15,08,56,13.10
2010,09,15,08,57,13.20
2010,09,15,08,58,13.20
2010,09,15,08,59,13.20
2010,09,15,09,00,13.30
2010,09,15,09,01,13.30
2010,09,15,09,02,13.30
2010,09,15,09,03,13.30
2010,09,15,09,04,13.30
2010,09,15,09,05,13.30
2010,09,15,09,06,13.40
2010,09,15,09,07,13.40
2010,09,15,09,08,13.50
2010,09,15,09,09,13.50
2010,09,15,09,10,13.60
2010,09,15,09,11,13.60
2010,09,15,09,12,13.60
2010,09,15,09,13,13.70
2010,09,15,09,14,13.70
2010,09,15,09,15,13.70
2010,09,15,09,16,13.70
2010,09,15,09,17,13.80
2010,09,15,09,18,13.80
2010,09,15,09,19,13.80
2010,09,15,09,20,13.90
2010,09,15,09,21,13.90
2010,09,15,09,22,14.00
2010,09,15,09,23,14.00
2010,09,15,09,24,14.00
2010,09,15,09,25,14.10
2010,09,15,09,26,14.10
2010,09,15,09,27,14.10
2010,09,15,09,28,14.10
2010,09,15,09,29,14.20
2010,09,15,09,30,14.20
2010,09,15,09,31,14.20
2010,09,15,09,32,14.20
2010,09,15,09,33,14.20
2010,09,15,09,34,14.20
2010,09,15,09,35,14.20
2010,09,15,09,36,14.30
2010,09,15,09,37,14.30
2010,09,15,09,38,14.40
2010,09,15,09,39,14.40
2010,09,15,09,40,14.50
2010,09,15,09,41,14.50
2010,09,15,09,42,14.60
2010,09,15,09,43,14.60
2010,09,15,09,44,14.70
2010,09,15,09,45,14.70
2010,09,15,09,46,14.70
2010,09,15,09,47,14.70
2010,09,15,09,48,14.70
2010,09,15,09,49,14.70
2010,09,15,09,50,14.80
2010,09,15,09,51,14.80
2010,09,15,09,52,14.80
2010,09,15,09,53,14.80
2010,09,15,09,54,14.80
2010,09,15,09,55,14.80
2010,09,15,09,56,14.80
2010,09,15,09,57,14.80
2010,09,15,09,58,14.80
2010,09,15,09,59,14.80
2010,09,15,10,00,14.90
2010,09,15,10,01,14.90
2010,09,15,10,02,14.90
2010,09,15,10,03,14.90
2010,09,15,10,04,14.90
2010,09,15,10,05,14.90
2010,09,15,10,06,14.90
2010,09,15,10,07,15.00
2010,09,15,10,08,15.00
2010,09,15,10,09,15.00
2010,09,15,10,10,15.10
2010,09,15,10,11,15.10
2010,09,15,10,12,15.10
2010,09,15,10,13,15.10
2010,09,15,10,14,15.10
2010,09,15,10,15,15.10
2010,09,15,10,16,15.10
2010,09,15,10,17,15.10
2010,09,15,10,18,15.20
2010,09,15,10,19,15.20
2010,09,15,10,20,15.30
2010,09,15,10,21,15.30
2010,09,15,10,22,15.30
2010,09,15,10,23,15.50
2010,09,15,10,24,15.50
2010,09,15,10,25,15.50
2010,09,15,10,26,15.60
2010,09,15,10,27,15.60
2010,09,15,10,28,15.70
2010,09,15,10,29,15.80
2010,09,15,10,30,15.80
2010,09,15,10,31,15.80
2010,09,15,10,32,15.80
2010,09,15,10,33,15.80
2010,09,15,10,34,15.80
2010,09,15,10,35,15.70
2010,09,15,10,36,15.80
2010,09,15,10,37,15.80
2010,09,15,10,38,15.80
2010,09,15,10,39,15.80
2010,09,15,10,40,15.80
2010,09,15,10,41,15.80
2010,09,15,10,42,15.70
2010,09,15,10,43,15.60
2010,09,15,10,44,15.60
2010,09,15,10,45,15.50
2010,09,15,10,46,15.50
2010,09,15,10,47,15.40
2010,09,15,10,48,15.40
2010,09,15,10,49,15.30
2010,09,15,10,50,15.30
2010,09,15,10,51,15.30
2010,09,15,10,52,15.30
2010,09,15,10,53,15.20
2010,09,15,10,54,15.10
2010,09,15,10,55,15.10
2010,09,15,10,56,15.00
2010,09,15,10,57,14.90
2010,09,15,10,58,14.90
2010,09,15,10,59,14.90
2010,09,15,11,00,14.90
2010,09,15,11,01,15.00
2010,09,15,11,02,15.00
2010,09,15,11,03,15.10
2010,09,15,11,04,15.10
2010,09,15,11,05,15.10
2010,09,15,11,06,15.20
2010,09,15,11,07,15.20
2010,09,15,11,08,15.30
2010,09,15,11,09,15.30
2010,09,15,11,10,15.30
2010,09,15,11,11,15.30
2010,09,15,11,12,15.30
2010,09,15,11,13,15.30
2010,09,15,11,14,15.30
2010,09,15,11,15,15.30
2010,09,15,11,16,15.30
2010,09,15,11,17,15.30
2010,09,15,11,18,15.40
2010,09,15,11,19,15.40
2010,09,15,11,20,15.30
2010,09,15,11,21,15.40
2010,09,15,11,22,15.30
2010,09,15,11,23,15.40
2010,09,15,11,24,15.40
2010,09,15,11,25,15.30
2010,09,15,11,26,15.30
2010,09,15,11,27,15.30
2010,09,15,11,28,15.30
2010,09,15,11,29,15.30
2010,09,15,11,30,15.20
2010,09,15,11,31,15.10
2010,09,15,11,32,15.00
2010,09,15,11,33,14.90
2010,09,15,11,34,14.80
2010,09,15,11,35,14.80
2010,09,15,11,36,14.70
2010,09,15,11,37,14.70
2010,09,15,11,38,14.60
2010,09,15,11,39,14.50
2010,09,15,11,40,14.40
2010,09,15,11,41,14.30
2010,09,15,11,42,14.30
2010,09,15,11,43,14.20
2010,09,15,11,44,14.20
2010,09,15,11,45,14.20
2010,09,15,11,46,14.20
2010,09,15,11,47,14.20
2010,09,15,11,48,14.20
2010,09,15,11,49,14.30
2010,09,15,11,50,14.30
2010,09,15,11,51,14.30
2010,09,15,11,52,14.30
2010,09,15,11,53,14.30
2010,09,15,11,54,14.30
2010,09,15,11,55,14.40
2010,09,15,11,56,14.40
2010,09,15,11,57,14.40
2010,09,15,11,58,14.40
2010,09,15,11,59,14.30
2010,09,15,12,00,14.40
2010,09,15,12,01,14.40
2010,09,15,12,02,14.40
2010,09,15,12,03,14.40
2010,09,15,12,04,14.40
2010,09,15,12,05,14.30
2010,09,15,12,06,14.30
2010,09,15,12,07,14.20
2010,09,15,12,08,14.20
2010,09,15,12,09,14.20
2010,09,15,12,10,14.20
2010,09,15,12,11,14.20
2010,09,15,12,12,14.20
2010,09,15,12,13,14.20
2010,09,15,12,14,14.20
2010,09,15,12,15,14.20
2010,09,15,12,16,14.20
2010,09,15,12,17,14.20
2010,09,15,12,18,14.30
2010,09,15,12,19,14.30
2010,09,15,12,20,14.30
2010,09,15,12,21,14.30
2010,09,15,12,22,14.30
2010,09,15,12,23,14.30
2010,09,15,12,24,14.40
2010,09,15,12,25,14.40
2010,09,15,12,26,14.40
2010,09,15,12,27,14.50
2010,09,15,12,28,14.50
2010,09,15,12,29,14.60
2010,09,15,12,30,14.60
2010,09,15,12,31,14.70
2010,09,15,12,32,14.70
2010,09,15,12,33,14.70
2010,09,15,12,34,14.60
2010,09,15,12,35,14.60
2010,09,15,12,36,14.60
2010,09,15,12,37,14.60
2010,09,15,12,38,14.60
2010,09,15,12,39,14.60
2010,09,15,12,40,14.70
2010,09,15,12,41,14.70
2010,09,15,12,42,14.70
2010,09,15,12,43,14.70
2010,09,15,12,44,14.70
2010,09,15,12,45,14.70
2010,09,15,12,46,14.70
2010,09,15,12,47,14.70
2010,09,15,12,48,14.70
2010,09,15,12,49,14.70
2010,09,15,12,50,14.70
2010,09,15,12,51,14.70
2010,09,15,12,52,14.80
2010,09,15,12,53,14.80
2010,09,15,12,54,14.80
2010,09,15,12,55,14.80
2010,09,15,12,56,14.80
2010,09,15,12,57,14.80
2010,09,15,12,58,14.80
2010,09,15,12,59,14.80
2010,09,15,13,00,14.90
2010,09,15,13,01,14.90
2010,09,15,13,02,14.90
2010,09,15,13,03,14.90
2010,09,15,13,04,14.80
2010,09,15,13,05,14.60
2010,09,15,13,06,14.50
2010,09,15,13,07,14.50
2010,09,15,13,08,14.40
2010,09,15,13,09,14.40
2010,09,15,13,10,14.30
2010,09,15,13,11,14.30
2010,09,15,13,12,14.30
2010,09,15,13,13,14.30
2010,09,15,13,14,14.20
2010,09,15,13,15,14.10
2010,09,15,13,16,14.00
2010,09,15,13,17,13.90
2010,09,15,13,18,13.90
2010,09,15,13,19,13.80
2010,09,15,13,20,13.80
2010,09,15,13,21,13.80
2010,09,15,13,22,13.80
2010,09,15,13,23,13.80
2010,09,15,13,24,13.70
2010,09,15,13,25,13.70
2010,09,15,13,26,13.70
2010,09,15,13,27,13.70
2010,09,15,13,28,13.70
2010,09,15,13,29,13.70
2010,09,15,13,30,13.70
2010,09,15,13,31,13.80
2010,09,15,13,32,13.80
2010,09,15,13,33,13.90
2010,09,15,13,34,13.90
2010,09,15,13,35,13.90
2010,09,15,13,36,13.80
2010,09,15,13,37,13.80
2010,09,15,13,38,13.70
2010,09,15,13,39,13.70
2010,09,15,13,40,13.70
2010,09,15,13,41,13.70
2010,09,15,13,42,13.70
2010,09,15,13,43,13.70
2010,09,15,13,44,13.60
2010,09,15,13,45,13.60
2010,09,15,13,46,13.60
2010,09,15,13,47,13.60
2010,09,15,13,48,13.70
2010,09,15,13,49,13.70
2010,09,15,13,50,13.70
2010,09,15,13,51,13.70
2010,09,15,13,52,13.70
2010,09,15,13,53,13.70
2010,09,15,13,54,13.70
2010,09,15,13,55,13.70
2010,09,15,13,56,13.70
2010,09,15,13,57,13.70
2010,09,15,13,58,13.70
2010,09,15,13,59,13.70
2010,09,15,14,00,13.70
2010,09,15,14,01,13.80
2010,09,15,14,02,13.80
2010,09,15,14,03,13.90
2010,09,15,14,04,13.90
2010,09,15,14,05,14.00
2010,09,15,14,06,14.10
2010,09,15,14,07,14.10
2010,09,15,14,08,14.20
2010,09,15,14,09,14.20
2010,09,15,14,10,14.20
2010,09,15,14,11,14.20
2010,09,15,14,12,14.20
2010,09,15,14,13,14.30
2010,09,15,14,14,14.30
2010,09,15,14,15,14.30
2010,09,15,14,16,14.40
2010,09,15,14,17,14.40
2010,09,15,14,18,14.50
2010,09,15,14,19,14.50
2010,09,15,14,20,14.50
2010,09,15,14,21,14.50
2010,09,15,14,22,14.50
2010,09,15,14,23,14.50
2010,09,15,14,24,14.50
2010,09,15,14,25,14.40
2010,09,15,14,26,14.40
2010,09,15,14,27,14.40
2010,09,15,14,28,14.40
2010,09,15,14,29,14.40
2010,09,15,14,30,14.40
2010,09,15,14,31,14.50
2010,09,15,14,32,14.50
2010,09,15,14,33,14.60
2010,09,15,14,34,14.60
2010,09,15,14,35,14.60
2010,09,15,14,36,14.60
2010,09,15,14,37,14.60
2010,09,15,14,38,14.70
2010,09,15,14,39,14.70
2010,09,15,14,40,14.70
2010,09,15,14,41,14.70
2010,09,15,14,42,14.70
2010,09,15,14,43,14.80
2010,09,15,14,44,14.80
2010,09,15,14,45,14.80
2010,09,15,14,46,14.80
2010,09,15,14,47,14.80
2010,09,15,14,48,14.80
2010,09,15,14,49,14.80
2010,09,15,14,50,14.80
2010,09,15,14,51,14.80
2010,09,15,14,52,14.70
2010,09,15,14,53,14.70
2010,09,15,14,54,14.70
2010,09,15,14,55,14.70
2010,09,15,14,56,14.70
2010,09,15,14,57,14.70
2010,09,15,14,58,14.70
2010,09,15,14,59,14.70
2010,09,15,15,00,14.70
2010,09,15,15,01,14.70
2010,09,15,15,02,14.70
2010,09,15,15,03,14.70
2010,09,15,15,04,14.70
2010,09,15,15,05,14.70
2010,09,15,15,06,14.60
2010,09,15,15,07,14.60
2010,09,15,15,08,14.60
2010,09,15,15,09,14.60
2010,09,15,15,10,14.60
2010,09,15,15,11,14.60
2010,09,15,15,12,14.60
2010,09,15,15,13,14.60
2010,09,15,15,14,14.60
2010,09,15,15,15,14.60
2010,09,15,15,16,14.60
2010,09,15,15,17,14.60
2010,09,15,15,18,14.70
2010,09,15,15,19,14.70
2010,09,15,15,20,14.70
2010,09,15,15,21,14.70
2010,09,15,15,22,14.70
2010,09,15,15,23,14.70
2010,09,15,15,24,14.60
2010,09,15,15,25,14.50
2010,09,15,15,26,14.30
2010,09,15,15,27,14.20
2010,09,15,15,28,14.20
2010,09,15,15,29,14.20
2010,09,15,15,30,14.20
2010,09,15,15,31,14.20
2010,09,15,15,32,14.20
2010,09,15,15,33,14.20
2010,09,15,15,34,14.20
2010,09,15,15,35,14.20
2010,09,15,15,36,14.20
2010,09,15,15,37,14.20
2010,09,15,15,38,14.20
2010,09,15,15,39,14.20
2010,09,15,15,40,14.20
2010,09,15,15,41,14.20
2010,09,15,15,42,14.20
2010,09,15,15,43,14.10
2010,09,15,15,44,14.20
2010,09,15,15,45,14.20
2010,09,15,15,46,14.20
2010,09,15,15,47,14.20
2010,09,15,15,48,14.20
2010,09,15,15,49,14.20
2010,09,15,15,50,14.20
2010,09,15,15,51,14.20
2010,09,15,15,52,14.30
2010,09,15,15,53,14.30
2010,09,15,15,54,14.30
2010,09,15,15,55,14.40
2010,09,15,15,56,14.40
2010,09,15,15,57,14.40
2010,09,15,15,58,14.50
2010,09,15,15,59,14.50
2010,09,15,16,00,14.50
2010,09,15,16,01,14.60
2010,09,15,16,02,14.60
2010,09,15,16,03,14.60
2010,09,15,16,04,14.70
2010,09,15,16,05,14.70
2010,09,15,16,06,14.70
2010,09,15,16,07,14.80
2010,09,15,16,08,14.80
2010,09,15,16,09,14.80
2010,09,15,16,10,14.80
2010,09,15,16,11,14.80
2010,09,15,16,12,14.80
2010,09,15,16,13,14.80
2010,09,15,16,14,14.80
2010,09,15,16,15,14.80
2010,09,15,16,16,14.90
2010,09,15,16,17,14.90
2010,09,15,16,18,14.90
2010,09,15,16,19,14.90
2010,09,15,16,20,14.80
2010,09,15,16,21,14.80
2010,09,15,16,22,14.80
2010,09,15,16,23,14.80
2010,09,15,16,24,14.80
2010,09,15,16,25,14.70
2010,09,15,16,26,14.70
2010,09,15,16,27,14.70
2010,09,15,16,28,14.80
2010,09,15,16,29,14.80
2010,09,15,16,30,14.70
2010,09,15,16,31,14.70
2010,09,15,16,32,14.70
2010,09,15,16,33,14.70
2010,09,15,16,34,14.70
2010,09,15,16,35,14.80
2010,09,15,16,36,14.80
2010,09,15,16,37,14.80
2010,09,15,16,38,14.80
2010,09,15,16,39,14.80
2010,09,15,16,40,14.80
2010,09,15,16,41,14.80
2010,09,15,16,42,14.80
2010,09,15,16,43,14.80
2010,09,15,16,44,14.80
2010,09,15,16,45,14.80
2010,09,15,16,46,14.90
2010,09,15,16,47,14.90
2010,09,15,16,48,15.00
2010,09,15,16,49,15.00
2010,09,15,16,50,15.00
2010,09,15,16,51,15.00
2010,09,15,16,52,15.00
2010,09,15,16,53,15.00
2010,09,15,16,54,15.00
2010,09,15,16,55,15.00
2010,09,15,16,56,15.00
2010,09,15,16,57,15.00
2010,09,15,16,58,15.00
2010,09,15,16,59,15.00
2010,09,15,17,00,15.00
2010,09,15,17,01,15.10
2010,09,15,17,02,15.00
2010,09,15,17,03,15.00
2010,09,15,17,04,14.90
2010,09,15,17,05,14.80
2010,09,15,17,06,14.80
2010,09,15,17,07,14.80
2010,09,15,17,08,14.80
2010,09,15,17,09,14.70
2010,09,15,17,10,14.80
2010,09,15,17,11,14.80
2010,09,15,17,12,14.80
2010,09,15,17,13,14.80
2010,09,15,17,14,14.80
2010,09,15,17,15,14.80
2010,09,15,17,16,14.90
2010,09,15,17,17,14.90
2010,09,15,17,18,14.90
2010,09,15,17,19,14.90